TimeEST,TemperatureF,Dew PointF,Humidity,Sea Level PressureIn,VisibilityMPH,Wind Direction,Wind SpeedMPH,Gust SpeedMPH,PrecipitationIn,Events,Conditions,WindDirDegrees,DateUTC
12:15 AM,30.2,24.8,80,30.12,10.0,SW,6.9,-,N/A,,Overcast,220,2013-02-10 05:15:00
12:35 AM,28.4,24.8,86,30.12,10.0,WSW,3.5,-,N/A,,Overcast,240,2013-02-10 05:35:00
12:54 AM,28.4,23.0,80,30.12,10.0,WSW,3.5,-,N/A,,Overcast,240,2013-02-10 05:54:00
1:15 AM,28.4,23.0,80,30.12,10.0,Calm,Calm,-,N/A,,Overcast,0,2013-02-10 06:15:00
1:35 AM,28.4,23.0,80,30.12,10.0,SW,3.5,-,N/A,,Overcast,220,2013-02-10 06:35:00
1:54 AM,28.4,23.0,80,30.11,10.0,Calm,Calm,-,N/A,,Overcast,0,2013-02-10 06:54:00
2:15 AM,28.4,23.0,80,30.10,10.0,Calm,Calm,-,N/A,,Overcast,0,2013-02-10 07:15:00
2:34 AM,28.4,23.0,80,30.10,10.0,Calm,Calm,-,N/A,,Overcast,0,2013-02-10 07:34:00
2:55 AM,28.4,23.0,80,30.09,10.0,Calm,Calm,-,N/A,,Overcast,0,2013-02-10 07:55:00
3:15 AM,26.6,23.0,86,30.10,10.0,Calm,Calm,-,N/A,,Overcast,0,2013-02-10 08:15:00
3:34 AM,26.6,23.0,86,30.10,10.0,Calm,Calm,-,N/A,,Overcast,0,2013-02-10 08:34:00
3:55 AM,26.6,23.0,86,30.09,10.0,Calm,Calm,-,N/A,,Overcast,0,2013-02-10 08:55:00
4:14 AM,26.6,23.0,86,30.08,10.0,Calm,Calm,-,N/A,,Overcast,0,2013-02-10 09:14:00
4:35 AM,26.6,23.0,86,30.08,10.0,Calm,Calm,-,N/A,,Overcast,0,2013-02-10 09:35:00
4:55 AM,26.6,23.0,86,30.08,10.0,Calm,Calm,-,N/A,,Overcast,0,2013-02-10 09:55:00
5:14 AM,26.6,23.0,86,30.08,10.0,Calm,Calm,-,N/A,,Overcast,0,2013-02-10 10:14:00
5:35 AM,26.6,23.0,86,30.08,10.0,Calm,Calm,-,N/A,,Overcast,0,2013-02-10 10:35:00
5:54 AM,26.6,23.0,86,30.07,10.0,Calm,Calm,-,N/A,,Overcast,0,2013-02-10 10:54:00
6:15 AM,26.6,23.0,86,30.07,10.0,ENE,3.5,-,N/A,,Overcast,60,2013-02-10 11:15:00
6:34 AM,26.6,23.0,86,30.07,10.0,Calm,Calm,-,N/A,,Overcast,0,2013-02-10 11:34:00
6:54 AM,26.6,24.8,93,30.06,10.0,Calm,Calm,-,N/A,,Overcast,0,2013-02-10 11:54:00
7:15 AM,26.6,24.8,93,30.06,10.0,Calm,Calm,-,N/A,,Overcast,0,2013-02-10 12:15:00
7:34 AM,28.4,24.8,86,30.06,10.0,SSE,4.6,-,N/A,,Overcast,150,2013-02-10 12:34:00
7:55 AM,30.2,26.6,86,30.05,10.0,SE,10.4,-,N/A,,Overcast,140,2013-02-10 12:55:00
8:14 AM,30.2,26.6,86,30.05,7.0,SE,10.4,-,N/A,,Overcast,140,2013-02-10 13:14:00
8:35 AM,30.2,26.6,86,30.05,7.0,SSE,13.8,18.4,N/A,,Overcast,150,2013-02-10 13:35:00
8:54 AM,30.2,26.6,86,30.04,10.0,SE,11.5,20.7,N/A,,Overcast,140,2013-02-10 13:54:00
9:15 AM,30.2,26.6,86,30.04,7.0,SE,9.2,-,N/A,,Overcast,140,2013-02-10 14:15:00
9:35 AM,30.2,26.6,86,30.03,7.0,SE,12.7,16.1,N/A,,Overcast,130,2013-02-10 14:35:00
9:54 AM,30.2,26.6,86,30.01,10.0,SE,12.7,16.1,N/A,,Overcast,140,2013-02-10 14:54:00
10:15 AM,30.2,26.6,86,30.00,10.0,SE,13.8,18.4,N/A,,Overcast,130,2013-02-10 15:15:00
10:34 AM,30.2,26.6,86,29.98,10.0,ESE,11.5,17.3,N/A,,Overcast,120,2013-02-10 15:34:00
10:55 AM,30.2,26.6,86,29.97,10.0,ESE,12.7,-,N/A,,Overcast,110,2013-02-10 15:55:00
11:15 AM,30.2,24.8,80,29.97,10.0,ESE,9.2,20.7,N/A,,Overcast,110,2013-02-10 16:15:00
11:34 AM,30.2,24.8,80,29.96,10.0,ESE,13.8,18.4,N/A,,Overcast,110,2013-02-10 16:34:00
11:55 AM,30.2,26.6,86,29.98,10.0,ESE,13.8,19.6,N/A,,Overcast,120,2013-02-10 16:55:00
12:14 PM,30.2,24.8,80,29.96,10.0,ESE,13.8,21.9,N/A,,Mostly Cloudy,110,2013-02-10 17:14:00
12:35 PM,30.2,26.6,86,29.97,10.0,ESE,12.7,18.4,N/A,,Scattered Clouds,110,2013-02-10 17:35:00
12:55 PM,30.2,26.6,86,29.94,10.0,ESE,13.8,-,N/A,,Scattered Clouds,110,2013-02-10 17:55:00
1:14 PM,30.2,24.8,80,29.92,10.0,East,13.8,18.4,N/A,,Mostly Cloudy,100,2013-02-10 18:14:00
1:35 PM,30.2,24.8,80,29.90,10.0,East,11.5,17.3,N/A,,Overcast,100,2013-02-10 18:35:00
1:54 PM,28.4,23.0,80,29.88,10.0,East,11.5,-,N/A,,Overcast,90,2013-02-10 18:54:00
2:15 PM,30.2,23.0,75,29.86,10.0,East,12.7,-,N/A,,Overcast,80,2013-02-10 19:15:00
2:34 PM,30.2,21.2,69,29.85,10.0,East,9.2,-,N/A,,Overcast,90,2013-02-10 19:34:00
2:54 PM,30.2,21.2,69,29.83,10.0,East,12.7,19.6,N/A,,Overcast,90,2013-02-10 19:54:00
3:15 PM,30.2,21.2,69,29.83,10.0,East,13.8,19.6,N/A,,Overcast,100,2013-02-10 20:15:00
3:34 PM,30.2,23.0,75,29.80,10.0,East,12.7,20.7,N/A,,Overcast,100,2013-02-10 20:34:00
3:55 PM,30.2,23.0,75,29.79,10.0,East,15.0,21.9,N/A,,Overcast,90,2013-02-10 20:55:00
4:15 PM,30.2,24.8,80,29.77,10.0,East,15.0,19.6,N/A,Snow,Light Snow,100,2013-02-10 21:15:00
4:34 PM,30.2,24.8,80,29.75,10.0,East,15.0,21.9,N/A,,Overcast,90,2013-02-10 21:34:00
4:55 PM,30.2,24.8,80,29.73,10.0,East,18.4,23.0,N/A,,Overcast,90,2013-02-10 21:55:00
5:14 PM,30.2,26.6,86,29.70,10.0,East,16.1,26.5,N/A,,Overcast,90,2013-02-10 22:14:00
5:35 PM,30.2,26.6,86,29.68,10.0,East,13.8,26.5,N/A,,Overcast,90,2013-02-10 22:35:00
5:55 PM,32.0,26.6,80,29.66,10.0,East,16.1,27.6,N/A,,Overcast,90,2013-02-10 22:55:00
6:14 PM,32.0,28.4,87,29.65,5.0,East,17.3,23.0,N/A,,Overcast,100,2013-02-10 23:14:00
6:35 PM,32.0,28.4,87,29.64,5.0,East,13.8,19.6,N/A,Snow,Light Snow,100,2013-02-10 23:35:00
6:54 PM,32.0,28.4,87,29.64,4.0,East,16.1,25.3,N/A,Snow,Light Snow,100,2013-02-10 23:54:00
7:14 PM,32.0,28.4,87,29.63,2.5,East,12.7,18.4,N/A,Snow,Light Snow,100,2013-02-11 00:14:00
7:35 PM,32.0,30.2,93,29.61,2.5,East,12.7,20.7,N/A,Snow,Light Snow,100,2013-02-11 00:35:00
7:54 PM,32.0,30.2,93,29.60,3.0,East,12.7,17.3,N/A,Snow,Light Snow,100,2013-02-11 00:54:00
8:15 PM,32.0,30.2,93,29.59,3.0,East,12.7,18.4,N/A,Snow,Light Snow,100,2013-02-11 01:15:00
8:35 PM,32.0,30.2,93,29.58,2.5,East,11.5,17.3,N/A,Snow,Light Snow,100,2013-02-11 01:35:00
8:54 PM,32.0,30.2,93,29.58,1.2,ESE,11.5,-,N/A,Snow,Light Snow,110,2013-02-11 01:54:00
9:15 PM,32.0,30.2,93,29.56,1.8,East,10.4,-,N/A,Snow,Light Snow,100,2013-02-11 02:15:00
9:34 PM,32.0,30.2,93,29.55,1.5,ESE,10.4,-,N/A,Snow,Light Snow,110,2013-02-11 02:34:00
9:55 PM,32.0,30.2,93,29.53,1.5,ESE,9.2,-,N/A,Snow,Light Snow,110,2013-02-11 02:55:00
10:15 PM,33.8,30.2,87,29.52,1.0,ESE,9.2,-,N/A,Snow,Light Snow,110,2013-02-11 03:15:00
10:34 PM,33.8,30.2,87,29.51,1.0,ESE,9.2,-,N/A,Snow,Light Snow,110,2013-02-11 03:34:00
10:55 PM,33.8,30.2,87,29.49,2.0,ESE,9.2,-,N/A,Snow,Light Snow,110,2013-02-11 03:55:00
11:14 PM,33.8,30.2,87,29.47,2.5,East,8.1,-,N/A,Snow,Light Snow,100,2013-02-11 04:14:00
11:34 PM,33.8,30.2,87,29.46,3.0,ESE,5.8,-,N/A,,Overcast,110,2013-02-11 04:34:00
11:55 PM,33.8,30.2,87,29.45,3.0,East,6.9,-,N/A,,Overcast,100,2013-02-11 04:55:00